CZ-3C DEB

基本信息
目录编号:
39340
目录名称:
CZ-3C DEB
国际标识:
2010-057E
轨道中心:
EARTH
物体状态:
在轨
发射日期:
2010-10-31 UTC
轨道信息
数据来源: 国际轨道数据
星历时间: 2026-07-11T01:04:32+0800
半长轴: 24155.04km
偏心率: 0.7153553
轨道倾角: 19.855°
近地点辐角: 72.716°
升交点赤经: 323.531°
平近点角: 349.291°
近地点: 497.467km
远地点: 35056.339km
周期: 622.689分钟
每日圈数: 2.31255
详细信息
发射场:
XSC
轨道高度:
LEO
数据来源:
AOE Integration Group
参考系:
TEME
时间系统:
UTC
历元类型:
SGP4
2D轨道图
3D轨道图
轨道高度分析图
轨道倾角分析图
轨道综合分析图
查看轨道综合分析图